ASTRA 5B

Last updated on Wed Sep 23 2026 00:03:32 GMT+0000 (Coordinated Universal Time)

1 39617U 14011B 26265.20655134 .00000134 00000+0 00000+0 0 9996 2 39617 0.0843 301.7434 0003101 258.6472 258.5601 1.00274340 45641
UTC large
Height (km)
Speed (km/s)
/
Latitude / Longitude
Inclination (degrees)
Orbital Period (minutes)
Azimuth
Elevation
Range (km)
Doppler Factor

Next 0 passes for location: London (51.5072 / 0.1276)

No passes found over London.
ASTRA 5B